Location: Bergnershof
(48.9468°N, 10.9431°E)
Time: 05:01:38
(UTC+00:00)

OBJECT-B - Pass Details

Date: 03 March 2021
Orbit: 414 x 427 km, 97.0° (Epoch: 09 April)

Event Time Altitude Azimuth Distance (km) Brightness Sun altitude
Exits shadow 19:37:55 30° 294° (WNW) 786 2.7 -25.8°
Drops below altitude 10° 19:40:10 10° 331° (NNW) 1,515 4.2 -26.2°
Sets 19:42:17 0° 340° (NNW) 2,382 5.2 -26.5°
